User: anonymous   Login
Location: All Nations United Methodist Church
(33.0215°N, 96.7483°W)
Time: 00:03:08
(UTC+00:00)
Language:

FALCON 9 DEB - Orbit

View from above orbital plane
View from above orbital plane
View from above satellite
View from above satellite

Ground track
Ground track

The orbit data is extracted from the following two-line orbital elements,

1 46084U 20055BK  21102.87283447  .00010964  00000-0  12616-3 0  9992
2 46084  53.0125 160.0721 0014094  35.2727 324.9216 15.62507520 43402
Epoch (UTC): 12 April 2021 20:56:52
Eccentricity: 0.0014094
inclination: 53.0125°
perigee height: 371 km
apogee height: 390 km
right ascension of ascending node: 160.0721°
argument of perigee: 35.2727°
revolutions per day: 15.62507520
mean anomaly at epoch: 324.9216°
orbit number at epoch: 4340

The dashed part of the orbit path shows where the satellite is in the earth's shadow,  

DLR